Вернуться в каталог

SL-8 DEB

LostLEO
NORAD 23264·DEBRIS·🇷🇺 Russia

Запущен Feb 12, 1991 с Plesetsk Cosmodrome

Loading…

Ближайшие Пролёты (ближайшие 24 часа)

TLE

УстаревшееSource: Space-Track

Эпоха: Aug 26, 2020, 14:34 UTC

1 23264U 91009CV  20239.60704755 -.00000005  00000-0  10000-3 0  9996
2 23264  74.0784 210.4004 0250271 272.5841  84.6925 12.12616859176702

Отслеживайте SL-8 DEB в реальном времени с AllMySat

Download on the App Store